Temperature
25 25 24 24 24 24 24 24 24 25 24 24 24 25 27 29 29 29 29 29 29 29 28 28 27 26 26 25 25 24 23 22 22 21 20 20 20 19 19 18 18 18 18 18
25 24 25 25 24 24 24 23 23 24 24 24 24 24 26 28 29 29 29 29 29 29 28 27 26 25 25 24 23 23 23 22 21 21 20 20 19 19 19 18 18 18 18 18
24 25 25 25 24 24 23 22 22 21 22 23 22 23 25 28 29 29 29 29 29 29 28 26 25 24 24 23 22 22 22 22 21 20 19 19 18 18 18 18 18 18 18 18
26 26 26 25 25 24 23 23 22 21 21 21 21 20 23 26 28 28 29 29 29 29 28 26 25 23 23 22 22 21 21 21 20 19 19 18 18 18 18 18 18 18 18 17
26 27 26 25 26 25 24 24 22 21 20 20 21 20 23 25 26 28 29 29 29 28 27 25 24 23 23 22 21 21 21 20 20 19 18 18 18 18 18 18 18 18 17 17
27 28 27 26 26 26 25 24 22 22 21 20 22 21 21 23 24 26 28 28 28 27 26 25 24 23 22 21 21 21 20 20 20 19 18 18 18 18 18 18 17 17 17 17
26 27 28 27 25 26 25 23 21 20 19 20 22 21 21 23 25 26 27 27 27 26 25 24 23 22 21 21 21 21 21 21 20 19 18 19 18 18 18 18 17 17 17 16
24 25 26 26 25 25 25 24 21 19 20 20 21 21 23 25 25 26 27 26 26 25 24 23 22 22 21 21 21 21 20 20 19 19 19 19 19 18 18 17 17 16 16 16
22 23 25 26 26 25 24 24 24 22 21 20 21 22 24 24 25 26 26 26 25 25 24 23 22 21 21 21 21 20 20 19 19 19 19 19 19 18 17 17 16 16 16 15
23 21 23 24 25 25 25 25 23 21 19 20 22 21 18 19 20 22 24 25 24 24 24 23 23 22 21 21 21 20 20 19 19 19 19 19 18 18 17 17 16 16 16 15
22 20 21 22 22 22 21 21 21 21 20 19 19 18 18 16 16 17 20 21 22 21 21 22 22 22 22 22 21 20 20 19 19 19 18 18 18 17 17 16 16 16 15 15
21 20 19 20 21 19 18 17 18 17 18 18 18 18 18 17 16 17 18 20 22 22 23 23 22 22 22 22 21 20 20 19 19 19 18 18 18 17 17 16 16 16 15 15
20 18 17 18 19 17 15 15 16 19 19 18 18 18 18 17 17 17 18 19 21 22 23 23 23 23 23 22 22 21 20 20 19 19 18 18 18 17 17 17 16 16 16 15
19 18 17 16 16 16 15 14 16 19 18 18 19 18 17 17 17 18 19 20 21 21 22 23 23 23 23 22 22 21 21 20 20 19 19 18 18 18 17 17 16 16 16 16
20 18 18 18 18 17 16 16 18 19 20 19 18 17 17 18 18 19 20 20 21 21 22 22 23 23 22 22 21 21 21 20 19 19 18 18 18 18 17 17 16 16 16 16
19 18 18 18 19 18 16 15 17 18 18 17 16 16 17 18 18 18 19 20 20 21 21 22 22 22 22 21 21 21 20 20 19 19 18 18 18 17 17 17 16 16 16 16
18 17 16 16 18 18 13 10 12 14 14 15 14 15 16 17 17 17 18 18 19 20 20 21 21 21 21 21 20 20 20 19 19 19 18 18 17 17 17 16 16 16 15 15
18 17 15 15 16 14 9 10 10 11 12 12 13 14 15 15 16 17 17 17 17 18 18 19 19 19 19 19 19 19 19 18 18 18 18 17 17 16 16 15 15 15 15 15
19 17 15 14 14 12 10 10 9 9 11 11 11 13 14 15 16 17 17 16 16 17 17 17 18 18 18 18 18 18 17 17 17 17 16 16 16 15 15 15 15 15 15 15
18 17 16 14 13 11 10 11 10 11 11 10 10 12 13 14 15 16 16 17 16 16 16 16 17 17 17 16 17 16 16 15 15 14 14 14 14 14 14 14 14 14 14 14
16 16 15 14 13 11 11 11 11 10 9 9 10 11 12 13 14 16 17 17 16 16 16 16 15 15 15 15 15 15 14 13 13 13 13 13 13 13 13 13 13 13 13 13
15 14 14 13 12 11 12 11 10 9 9 9 10 11 12 13 14 16 17 17 17 16 15 15 15 15 15 14 14 14 13 13 12 12 12 12 12 12 12 12 12 12 12 12
15 14 14 13 13 13 12 11 10 9 9 10 10 11 12 13 14 16 16 17 17 16 16 15 15 15 15 14 14 13 13 13 13 12 12 12 12 11 11 11 11 11 11 12
15 15 14 14 14 13 12 11 11 10 10 10 11 11 12 13 14 16 16 17 17 16 16 15 15 15 15 14 14 13 13 13 13 13 12 12 12 11 11 11 11 11 11 11
14 14 14 13 14 13 12 11 11 11 11 11 11 12 12 13 14 16 16 17 17 17 16 15 16 15 15 15 14 14 13 13 14 13 13 12 12 11 11 11 11 11 11 11
15 14 13 13 13 12 12 12 11 11 11 11 11 12 13 13 15 16 16 17 17 17 16 16 15 15 15 15 14 14 13 13 13 13 12 12 12 11 11 11 11 11 11 11
Wind_Speed
4 7 6 5 5 8 10 12 15 11 6 8 10 13 14 11 9 8 8 8 9 10 10 9 9 8 6 3 1 3 6 7 6 5 4 2 3 5 4 4 5 5 4 4
6 7 4 3 4 7 9 11 13 13 10 9 11 15 16 16 12 10 11 11 11 10 9 10 11 9 7 6 4 1 4 4 5 5 4 3 3 4 5 5 5 6 6 6
9 6 2 6 8 9 9 7 7 10 12 9 11 14 18 20 17 14 13 11 10 7 12 15 13 11 8 8 6 3 4 6 6 5 4 2 2 2 3 6 5 6 6 7
8 7 5 9 11 10 11 6 4 5 6 6 5 8 14 15 12 11 11 11 9 6 7 15 14 12 10 8 7 8 4 6 7 5 4 4 4 5 5 6 6 7 7 6
10 8 8 11 12 9 8 4 5 6 5 8 10 8 10 11 12 8 4 6 8 8 8 15 13 12 11 9 7 7 7 6 7 5 5 4 4 5 5 5 8 8 7 7
16 14 11 10 10 9 6 5 8 8 6 9 11 9 7 4 6 7 5 2 4 8 10 14 13 12 11 9 7 7 7 8 5 3 4 6 6 5 4 2 4 5 4 5
16 13 9 6 9 10 9 8 5 5 5 5 3 4 7 7 5 4 3 2 4 9 11 14 13 12 10 9 7 7 8 7 5 5 7 8 6 3 4 4 5 4 3 4
16 12 5 3 9 11 9 11 8 5 4 3 3 6 5 7 5 4 2 3 7 10 12 13 12 11 10 9 8 8 8 7 6 5 5 2 7 3 1 3 3 4 3 3
13 15 15 13 12 14 14 13 11 10 10 9 7 6 1 2 3 2 5 9 10 11 13 13 12 12 11 9 8 8 8 8 7 6 2 1 4 5 3 2 2 3 3 3
14 20 18 19 17 15 14 12 6 4 4 7 5 2 6 15 18 12 3 6 9 8 10 12 12 12 11 10 9 8 8 8 7 5 3 3 3 5 3 1 3 4 4 5
17 14 16 17 15 12 9 9 7 5 5 3 2 1 4 8 15 19 15 11 8 9 6 4 2 7 10 11 11 9 8 7 8 7 5 6 3 3 4 3 3 2 3 5
11 9 13 17 12 11 6 8 9 3 4 4 1 2 7 8 9 15 18 14 8 3 2 4 4 4 6 10 12 11 10 9 8 7 6 6 6 5 4 5 6 5 5 5
10 9 12 12 7 12 8 11 15 10 1 2 2 3 10 12 11 12 16 16 12 9 6 1 2 1 2 4 7 9 10 9 9 7 6 6 6 7 6 5 6 6 6 6
6 10 10 11 11 7 7 13 17 11 3 4 4 6 12 13 12 12 13 14 11 10 8 6 2 3 3 4 5 6 9 9 10 8 6 6 6 7 6 5 5 5 6 7
9 11 14 13 12 9 8 12 13 9 6 3 5 11 17 15 14 13 12 12 10 9 8 6 4 2 3 4 4 4 5 8 10 9 7 6 6 6 6 5 5 4 5 5
10 12 16 16 13 10 7 19 14 12 14 14 15 13 18 19 15 15 15 13 11 8 6 4 4 1 1 3 4 3 4 6 8 9 8 7 5 3 5 4 5 6 5 5
11 12 12 11 13 7 8 16 16 15 18 16 15 14 19 21 18 17 17 15 13 11 9 8 8 6 4 4 5 5 5 5 3 4 4 4 3 2 2 3 5 5 5 5
12 12 6 8 10 4 5 8 14 11 15 20 18 19 22 21 14 13 17 16 15 15 14 12 11 11 11 11 10 9 9 9 8 8 8 7 5 4 3 4 4 5 5 6
11 9 6 6 7 5 6 10 11 8 6 16 20 22 23 24 14 13 18 14 14 13 12 12 12 12 12 12 11 11 11 11 10 9 9 9 8 7 6 5 5 5 5 5
12 9 7 7 6 5 5 13 15 6 0 14 19 20 21 22 15 14 16 11 11 11 10 10 11 11 11 11 11 11 10 9 9 8 8 8 7 6 6 6 5 5 5 4
13 10 10 9 5 3 5 12 10 5 6 16 17 18 19 17 15 15 14 8 7 7 8 8 9 8 9 9 10 10 9 8 7 6 5 5 5 5 5 5 5 5 4 3
10 8 8 7 6 4 9 8 6 5 10 13 16 17 18 18 18 16 13 6 6 6 6 7 6 6 7 7 7 7 6 4 4 4 3 3 3 5 5 5 5 4 4 3
7 7 5 5 4 5 5 3 3 6 10 13 15 18 18 19 17 16 12 6 4 4 5 4 3 4 5 6 6 5 4 3 2 3 3 3 4 4 5 6 5 4 3 3
5 6 5 4 5 7 5 6 7 8 10 14 16 17 17 17 17 14 12 6 1 4 4 1 0 3 4 4 5 5 4 4 1 3 3 5 6 6 7 6 7 6 6 5
3 5 5 3 6 7 6 10 10 11 13 15 16 16 16 16 16 13 11 7 2 4 3 1 3 3 2 4 5 5 5 6 4 4 5 6 5 5 5 6 6 6 7 6
1 3 4 4 7 7 9 10 11 12 13 15 16 16 16 15 14 12 10 8 3 1 3 3 2 2 3 4 5 5 4 6 5 5 5 4 3 3 2 4 5 10 9 11
Wind_Direction
245 256 260 284 308 299 301 299 298 303 334 314 294 297 297 278 243 228 231 233 225 206 192 175 140 121 124 127 143 136 147 166 154 144 150 157 159 153 164 169 178 184 201 216
282 273 302 303 281 283 290 294 298 307 330 319 307 299 291 280 261 238 230 230 225 209 173 135 130 127 141 128 102 60 143 145 134 131 144 168 193 193 180 178 181 184 197 209
280 276 255 275 277 273 272 278 296 309 318 315 312 293 281 270 257 240 225 224 226 210 168 146 143 134 127 118 124 88 66 101 94 112 119 143 173 232 201 181 192 194 203 210
271 250 250 268 268 264 270 256 249 289 309 299 297 292 286 291 282 247 218 205 206 214 162 145 140 135 132 126 129 127 112 116 119 128 150 170 181 202 207 195 196 200 206 206
281 284 268 272 276 270 275 231 228 239 249 269 260 265 275 297 302 279 224 198 181 166 140 135 135 133 127 126 126 119 120 106 119 147 157 181 213 220 222 203 188 197 204 203
267 263 253 263 283 274 259 230 238 235 240 256 247 230 274 289 316 338 10 43 122 137 132 128 124 117 115 115 115 115 119 102 107 137 173 190 210 216 208 189 174 187 185 200
308 287 250 228 271 260 237 243 266 250 227 257 295 219 240 251 285 330 335 355 128 132 134 127 124 123 126 134 140 134 126 126 153 197 217 199 180 206 199 178 173 171 179 194
312 313 347 320 288 289 258 243 240 264 264 296 279 246 236 210 230 236 182 116 124 132 133 132 135 136 145 151 156 153 146 152 166 222 243 192 138 129 65 99 126 157 165 184
320 310 317 316 303 292 284 269 267 267 271 270 241 224 182 290 243 217 152 138 142 147 140 142 147 151 156 160 165 163 155 159 172 219 229 319 104 119 118 132 132 129 155 168
314 310 310 311 301 279 279 279 266 244 278 264 254 55 14 357 353 353 28 129 137 138 143 150 154 159 163 166 170 175 178 175 175 213 182 110 81 118 93 98 142 157 163 136
316 307 307 304 298 305 317 309 290 268 247 259 308 63 76 24 359 349 358 21 52 61 52 51 140 171 171 168 172 178 189 187 171 186 171 136 163 139 149 174 126 132 139 140
338 321 304 300 318 20 8 325 298 261 275 303 285 93 85 59 7 346 344 351 356 52 127 150 175 195 185 176 179 184 190 189 169 176 166 167 169 163 191 183 169 185 170 165
338 311 310 313 338 21 10 331 319 317 319 300 316 88 50 33 7 342 333 328 331 333 328 324 142 192 202 190 188 186 188 179 160 167 175 175 178 184 204 200 178 183 171 178
314 295 298 299 307 318 318 302 301 311 339 332 352 18 23 15 351 332 321 314 318 314 313 309 254 211 204 209 207 201 188 166 155 162 184 199 206 187 194 203 177 184 191 190
335 310 312 307 298 275 265 289 297 311 336 341 28 41 15 358 339 332 325 323 320 310 297 290 277 237 181 186 200 207 179 158 155 160 186 208 226 193 182 192 175 199 211 211
335 319 320 312 303 297 24 15 20 34 38 49 48 28 357 350 356 -0 355 350 345 332 329 334 330 14 117 160 163 155 146 142 151 164 187 204 224 206 178 192 192 207 209 223
344 338 329 312 311 298 52 15 18 40 41 41 38 10 355 357 7 12 5 5 6 12 19 27 28 38 49 85 103 102 104 103 123 150 164 164 183 234 214 226 227 216 210 215
352 347 336 323 337 58 68 18 8 11 37 26 12 4 360 353 346 18 15 16 19 25 28 31 38 44 52 60 66 66 61 58 50 44 37 33 25 1 325 288 267 241 228 216
8 356 350 348 349 75 34 4 354 337 350 15 360 355 353 349 352 11 10 20 22 22 26 31 38 48 51 50 56 65 63 57 49 37 26 22 17 7 352 330 308 286 267 245
2 13 13 358 3 27 352 334 322 273 286 359 349 346 347 350 357 348 347 13 27 22 26 31 36 45 51 50 53 60 60 56 48 39 34 26 20 3 353 342 329 316 297 277
359 8 16 6 18 55 352 340 348 56 328 322 329 336 340 340 329 322 333 6 38 35 29 39 41 40 47 55 59 57 54 56 55 47 39 27 18 5 9 351 342 336 328 320
8 4 9 2 11 16 12 6 17 321 305 313 323 328 330 326 322 329 335 358 39 50 43 44 47 46 46 47 63 70 52 53 73 59 30 29 46 20 14 5 358 355 356 346
32 18 350 355 8 8 4 6 329 304 311 316 320 323 324 323 325 330 332 343 56 56 66 58 54 57 65 55 45 63 53 8 80 73 13 19 64 56 33 19 9 2 3 350
17 5 350 357 14 9 31 4 339 326 314 313 314 318 320 321 322 326 326 325 96 84 79 20 65 69 62 64 59 47 21 329 352 106 57 52 53 49 46 34 20 21 18 11
339 342 341 345 10 360 356 347 333 323 318 318 318 319 319 318 319 324 324 328 54 109 122 318 36 34 24 75 75 54 13 339 350 67 75 77 73 67 64 63 41 29 47 39
5 358 346 351 358 336 326 329 328 325 323 323 323 322 321 319 319 325 329 334 347 101 137 139 113 298 339 61 80 78 22 350 15 49 52 60 87 84 100 120 101 58 59 56
Height
1478 1479 1481 1480 1480 1482 1480 1481 1480 1473 1472 1475 1472 1468 1461 1457 1456 1457 1459 1460 1462 1464 1467 1472 1475 1478 1482 1486 1489 1492 1493 1495 1497 1499 1501 1503 1504 1505 1506 1508 1511 1513 1515 1517
1479 1480 1477 1476 1477 1479 1481 1484 1483 1476 1474 1475 1473 1468 1461 1455 1452 1452 1453 1455 1457 1460 1463 1467 1471 1475 1480 1484 1487 1490 1491 1493 1495 1496 1498 1500 1502 1504 1505 1506 1508 1510 1512 1514
1481 1478 1475 1476 1477 1480 1481 1485 1487 1487 1480 1475 1477 1473 1463 1451 1447 1446 1447 1450 1452 1455 1458 1463 1468 1472 1477 1481 1484 1487 1489 1490 1492 1493 1495 1496 1498 1500 1503 1504 1505 1507 1508 1510
1474 1469 1472 1475 1475 1476 1481 1477 1480 1484 1488 1488 1485 1490 1468 1451 1444 1440 1441 1444 1448 1452 1455 1459 1465 1470 1475 1479 1483 1485 1486 1489 1489 1490 1492 1494 1495 1497 1499 1501 1502 1504 1505 1507
1472 1467 1469 1472 1470 1469 1472 1472 1477 1480 1486 1489 1483 1488 1471 1453 1450 1440 1438 1440 1443 1449 1454 1459 1464 1469 1474 1478 1481 1483 1485 1487 1487 1488 1490 1492 1493 1495 1497 1499 1500 1501 1502 1503
1466 1462 1463 1465 1464 1465 1466 1472 1475 1477 1483 1492 1477 1483 1478 1461 1455 1446 1441 1442 1444 1448 1453 1458 1464 1468 1473 1477 1479 1481 1483 1484 1485 1487 1488 1490 1492 1494 1495 1496 1497 1498 1499 1500
1467 1458 1455 1460 1465 1464 1465 1476 1491 1493 1495 1488 1469 1475 1472 1455 1448 1447 1445 1443 1445 1448 1453 1458 1463 1468 1472 1475 1478 1480 1481 1483 1484 1485 1487 1489 1490 1492 1493 1494 1495 1495 1496 1497
1478 1472 1460 1461 1465 1465 1463 1469 1489 1500 1494 1487 1476 1475 1459 1447 1446 1445 1443 1443 1445 1449 1453 1458 1463 1468 1471 1474 1476 1478 1480 1482 1483 1485 1487 1489 1489 1490 1491 1492 1492 1493 1494 1494
1486 1480 1465 1463 1463 1463 1464 1464 1461 1474 1477 1483 1473 1461 1452 1447 1446 1444 1443 1444 1446 1449 1454 1458 1463 1467 1470 1472 1475 1477 1479 1481 1482 1484 1486 1488 1488 1488 1489 1490 1490 1491 1491 1491
1485 1487 1475 1466 1463 1460 1459 1458 1466 1477 1489 1486 1471 1472 1482 1470 1464 1454 1448 1446 1447 1450 1454 1457 1462 1466 1469 1472 1474 1476 1478 1480 1481 1483 1485 1486 1486 1486 1487 1488 1488 1489 1489 1489
1486 1489 1483 1474 1470 1469 1468 1470 1468 1471 1476 1486 1489 1487 1477 1479 1478 1473 1462 1455 1453 1455 1458 1460 1462 1464 1467 1470 1472 1474 1477 1479 1480 1481 1483 1483 1484 1485 1485 1486 1487 1487 1488 1487
1489 1491 1491 1481 1473 1474 1476 1481 1480 1487 1486 1480 1487 1490 1477 1478 1479 1477 1470 1464 1460 1458 1459 1461 1463 1464 1465 1467 1469 1471 1474 1476 1478 1479 1481 1481 1483 1483 1484 1484 1485 1485 1486 1486
1495 1498 1502 1493 1485 1486 1491 1489 1484 1475 1475 1481 1486 1488 1478 1479 1479 1477 1473 1469 1464 1461 1460 1460 1461 1463 1464 1466 1467 1468 1470 1473 1475 1477 1479 1480 1481 1482 1482 1483 1483 1484 1485 1485
1496 1497 1502 1508 1502 1497 1498 1495 1484 1476 1481 1482 1481 1483 1482 1481 1480 1476 1473 1468 1464 1461 1459 1459 1460 1461 1462 1463 1464 1466 1468 1470 1472 1474 1477 1478 1480 1480 1481 1482 1482 1482 1483 1484
1495 1497 1493 1490 1488 1489 1492 1490 1480 1475 1473 1479 1481 1486 1488 1484 1480 1475 1470 1465 1461 1459 1457 1457 1458 1458 1459 1460 1461 1463 1466 1468 1470 1472 1475 1477 1478 1479 1479 1480 1480 1480 1481 1482
1496 1497 1494 1491 1484 1484 1492 1494 1484 1481 1482 1485 1488 1493 1491 1485 1479 1475 1470 1465 1461 1458 1456 1456 1456 1457 1457 1458 1459 1461 1464 1467 1469 1471 1473 1475 1477 1478 1477 1478 1478 1478 1478 1479
1497 1498 1500 1497 1485 1483 1506 1516 1509 1504 1500 1498 1503 1504 1495 1487 1483 1479 1473 1468 1464 1460 1458 1457 1457 1457 1457 1458 1459 1461 1464 1467 1469 1471 1473 1474 1474 1475 1475 1475 1475 1475 1476 1477
1499 1499 1502 1500 1495 1507 1528 1524 1520 1514 1510 1511 1509 1505 1500 1495 1488 1483 1478 1474 1469 1466 1463 1461 1460 1460 1460 1460 1462 1463 1465 1467 1468 1469 1470 1470 1471 1471 1471 1472 1472 1472 1472 1473
1501 1502 1504 1507 1506 1515 1524 1523 1523 1523 1517 1517 1515 1509 1503 1495 1487 1483 1482 1479 1476 1473 1470 1468 1466 1465 1464 1464 1465 1466 1466 1467 1467 1467 1468 1467 1467 1467 1467 1467 1467 1468 1469 1469
1503 1502 1507 1510 1514 1524 1531 1524 1520 1519 1519 1519 1518 1513 1507 1501 1495 1491 1487 1483 1481 1478 1475 1473 1471 1470 1469 1469 1468 1468 1468 1467 1467 1467 1466 1465 1464 1463 1463 1463 1463 1463 1464 1465
1512 1510 1513 1516 1519 1528 1529 1525 1519 1523 1529 1523 1520 1515 1511 1507 1503 1496 1490 1486 1484 1482 1480 1478 1476 1474 1474 1473 1472 1470 1470 1469 1469 1467 1466 1465 1463 1462 1460 1459 1459 1459 1460 1461
1520 1521 1522 1523 1526 1533 1526 1525 1528 1530 1526 1523 1519 1515 1511 1506 1500 1495 1490 1487 1486 1484 1483 1481 1480 1479 1478 1476 1475 1473 1472 1472 1470 1469 1467 1466 1464 1462 1460 1458 1457 1457 1457 1458
1523 1527 1526 1527 1530 1528 1527 1527 1528 1526 1524 1521 1517 1513 1509 1504 1499 1495 1490 1488 1487 1486 1485 1484 1483 1482 1480 1479 1478 1476 1474 1473 1472 1470 1469 1467 1465 1463 1461 1459 1458 1457 1457 1458
1524 1526 1526 1526 1525 1526 1527 1527 1526 1524 1522 1518 1515 1511 1507 1503 1499 1494 1490 1488 1487 1486 1485 1485 1484 1484 1482 1481 1479 1477 1476 1474 1474 1472 1470 1468 1466 1464 1462 1461 1460 1459 1459 1459
1528 1527 1527 1526 1526 1526 1526 1526 1524 1521 1518 1515 1512 1509 1506 1502 1498 1494 1491 1488 1487 1486 1486 1485 1485 1484 1484 1482 1480 1478 1476 1475 1474 1473 1471 1470 1468 1466 1465 1464 1463 1462 1461 1461
1525 1528 1529 1528 1528 1528 1526 1524 1522 1519 1516 1513 1509 1505 1503 1500 1497 1494 1491 1488 1487 1486 1486 1486 1485 1485 1484 1483 1481 1479 1477 1476 1475 1474 1473 1471 1470 1469 1468 1467 1466 1465 1465 1464